Terminal Aerodrome Forecast
Issued by NWS New Orleans/Baton Rouge, LA

Current Version | Previous Version | Text Only | Print | Product List | Glossary On
Versions: 1 2 3 4 5 6 7 8 9 10 11 12 13
420
FTUS44 KLIX 291400 AAA
TAFBTR
TAF AMD
KBTR 291400Z 2914/3012 15019G27KT P6SM BKN025
     FM291800 15024G30KT P6SM OVC035
     FM300200 13021G28KT P6SM OVC015=

USA.gov is the U.S. government's official web portal to all federal, state and local government web resources and services.